Time,TemperatureF,DewpointF,PressureIn,WindDirection,WindDirectionDegrees,WindSpeedMPH,WindSpeedGustMPH,Humidity,HourlyPrecipIn,Conditions,Clouds,dailyrainin,SoftwareType,DateUTC
2013-06-02 00:00:00,61.0,59.6,29.82,WNW,300,0.0,5.0,95,0.00,,CLR,0.00,VWS V14.01,2013-06-02 05:00:00,
2013-06-02 00:01:00,61.1,59.7,29.82,West,264,1.0,3.0,95,0.00,,BKN085,0.00,VWS V14.01,2013-06-02 05:01:00,
2013-06-02 00:06:00,61.2,59.8,29.82,West,268,0.0,3.0,95,0.00,,BKN085,0.00,VWS V14.01,2013-06-02 05:06:00,
2013-06-02 00:10:00,61.2,59.8,29.82,West,269,0.0,3.0,95,0.00,,,0.00,VWS V14.01,2013-06-02 05:10:00,
2013-06-02 00:11:00,61.2,59.8,29.82,SW,236,3.0,3.0,95,0.00,,BKN085,0.00,VWS V14.01,2013-06-02 05:11:00,
2013-06-02 00:16:00,61.3,59.9,29.82,WSW,249,3.0,5.0,95,0.00,,BKN085,0.00,VWS V14.01,2013-06-02 05:16:00,
2013-06-02 00:20:00,61.3,59.6,29.82,WNW,283,1.0,5.0,94,0.00,,CLR,0.00,VWS V14.01,2013-06-02 05:20:00,
2013-06-02 00:21:00,61.3,59.6,29.82,WSW,252,3.0,3.0,94,0.00,,OVC085,0.00,VWS V14.01,2013-06-02 05:21:00,
2013-06-02 00:26:00,61.3,59.6,29.82,WNW,297,0.0,3.0,94,0.00,,OVC085,0.00,VWS V14.01,2013-06-02 05:26:00,
2013-06-02 00:30:00,61.3,59.6,29.82,WNW,288,0.0,3.0,94,0.00,,CLR,0.00,VWS V14.01,2013-06-02 05:30:00,
2013-06-02 00:31:00,61.2,59.5,29.82,WNW,288,0.0,0.0,94,0.00,,OVC085,0.00,VWS V14.01,2013-06-02 05:31:00,
2013-06-02 00:36:00,61.1,59.4,29.82,WSW,257,4.0,4.0,94,0.00,,OVC085,0.00,VWS V14.01,2013-06-02 05:36:00,
2013-06-02 00:40:00,61.1,59.4,29.82,West,276,0.0,8.0,94,0.00,,CLR,0.00,VWS V14.01,2013-06-02 05:40:00,
2013-06-02 00:41:00,61.0,59.3,29.82,West,262,1.0,1.0,94,0.00,,OVC085,0.00,VWS V14.01,2013-06-02 05:41:00,
2013-06-02 00:46:00,60.9,59.2,29.82,West,269,1.0,5.0,94,0.00,,OVC085,0.00,VWS V14.01,2013-06-02 05:46:00,
2013-06-02 00:50:00,60.9,59.2,29.82,West,274,0.0,5.0,94,0.00,,CLR,0.00,VWS V14.01,2013-06-02 05:50:00,
2013-06-02 00:51:00,60.9,59.2,29.82,WSW,248,2.0,2.0,94,0.00,,OVC085,0.00,VWS V14.01,2013-06-02 05:51:00,
2013-06-02 00:57:00,60.8,59.1,29.82,WNW,290,0.0,2.0,94,0.00,,OVC085,0.00,VWS V14.01,2013-06-02 05:57:00,
2013-06-02 01:00:00,60.7,59.0,29.82,WNW,290,0.0,2.0,94,0.00,,CLR,0.00,VWS V14.01,2013-06-02 06:00:00,
2013-06-02 01:02:00,60.7,59.3,29.82,WSW,255,0.0,1.0,95,0.00,,BKN085,0.00,VWS V14.01,2013-06-02 06:02:00,
2013-06-02 01:07:00,60.6,59.2,29.81,West,263,0.0,1.0,95,0.00,,BKN085,0.00,VWS V14.01,2013-06-02 06:07:00,
2013-06-02 01:10:00,60.5,59.1,29.81,West,263,0.0,1.0,95,0.00,,CLR,0.00,VWS V14.01,2013-06-02 06:10:00,
2013-06-02 01:12:00,60.4,59.0,29.81,WSW,237,1.0,2.0,95,0.00,,BKN085,0.00,VWS V14.01,2013-06-02 06:12:00,
2013-06-02 01:17:00,60.3,58.9,29.81,SW,236,1.0,2.0,95,0.00,,BKN085,0.00,VWS V14.01,2013-06-02 06:17:00,
2013-06-02 01:20:00,60.3,58.9,29.81,SW,236,0.0,2.0,95,0.00,,CLR,0.00,VWS V14.01,2013-06-02 06:20:00,
2013-06-02 01:22:00,60.2,58.8,29.81,WNW,288,1.0,3.0,95,0.00,,SCT085,0.00,VWS V14.01,2013-06-02 06:22:00,
2013-06-02 01:27:00,60.2,58.8,29.82,WNW,288,0.0,3.0,95,0.00,,SCT085,0.00,VWS V14.01,2013-06-02 06:27:00,
2013-06-02 01:30:00,60.2,58.8,29.82,WNW,288,0.0,3.0,95,0.00,,CLR,0.00,VWS V14.01,2013-06-02 06:30:00,
2013-06-02 01:32:00,60.1,58.7,29.82,West,264,0.0,0.0,95,0.00,,SCT085,0.00,VWS V14.01,2013-06-02 06:32:00,
2013-06-02 01:37:00,60.0,58.6,29.82,WNW,285,0.0,0.0,95,0.00,,SCT085,0.00,VWS V14.01,2013-06-02 06:37:00,
2013-06-02 01:40:00,60.0,58.6,29.82,WNW,285,0.0,0.0,95,0.00,,CLR,0.00,VWS V14.01,2013-06-02 06:40:00,
2013-06-02 01:42:00,60.0,58.6,29.82,WNW,297,0.0,0.0,95,0.00,,SCT090,0.00,VWS V14.01,2013-06-02 06:42:00,
2013-06-02 01:47:00,60.0,58.6,29.82,West,263,2.0,3.0,95,0.00,,SCT090,0.00,VWS V14.01,2013-06-02 06:47:00,
2013-06-02 01:50:00,60.0,58.6,29.82,West,267,3.0,3.0,95,0.00,,CLR,0.00,VWS V14.01,2013-06-02 06:50:00,
2013-06-02 01:52:00,60.1,58.7,29.82,WNW,291,1.0,3.0,95,0.00,,SCT090,0.00,VWS V14.01,2013-06-02 06:52:00,
2013-06-02 01:57:00,60.1,58.7,29.82,WNW,293,1.0,3.0,95,0.00,,SCT090,0.00,VWS V14.01,2013-06-02 06:57:00,
2013-06-02 02:00:00,60.1,58.7,29.82,WNW,295,0.0,3.0,95,0.00,,CLR,0.00,VWS V14.01,2013-06-02 07:00:00,
2013-06-02 02:02:00,60.1,58.7,29.81,NW,309,2.0,5.0,95,0.00,,SCT090,0.00,VWS V14.01,2013-06-02 07:02:00,
2013-06-02 02:08:00,60.1,58.7,29.81,West,276,1.0,5.0,95,0.00,,SCT090,0.00,VWS V14.01,2013-06-02 07:08:00,
2013-06-02 02:10:00,60.1,58.7,29.81,West,264,3.0,5.0,95,0.00,,CLR,0.00,VWS V14.01,2013-06-02 07:10:00,
2013-06-02 02:13:00,60.1,58.7,29.81,NW,314,1.0,6.0,95,0.00,,SCT090,0.00,VWS V14.01,2013-06-02 07:13:00,
2013-06-02 02:18:00,60.2,58.8,29.81,West,277,0.0,6.0,95,0.00,,SCT090,0.00,VWS V14.01,2013-06-02 07:18:00,
2013-06-02 02:20:00,60.2,58.8,29.81,West,277,0.0,6.0,95,0.00,,CLR,0.00,VWS V14.01,2013-06-02 07:20:00,
2013-06-02 02:23:00,60.2,58.8,29.81,West,281,0.0,0.0,95,0.00,,BKN049,0.00,VWS V14.01,2013-06-02 07:23:00,
2013-06-02 02:28:00,60.2,58.8,29.81,WNW,300,1.0,2.0,95,0.00,,BKN049,0.00,VWS V14.01,2013-06-02 07:28:00,
2013-06-02 02:30:00,60.3,58.9,29.81,WNW,298,1.0,2.0,95,0.00,,CLR,0.00,VWS V14.01,2013-06-02 07:30:00,
2013-06-02 02:33:00,60.2,58.8,29.81,WSW,240,1.0,2.0,95,0.00,,BKN049,0.00,VWS V14.01,2013-06-02 07:33:00,
2013-06-02 02:38:00,60.2,58.8,29.81,West,267,1.0,2.0,95,0.00,,BKN049,0.00,VWS V14.01,2013-06-02 07:38:00,
2013-06-02 02:40:00,60.2,58.8,29.81,West,267,1.0,2.0,95,0.00,,CLR,0.00,VWS V14.01,2013-06-02 07:40:00,
2013-06-02 02:43:00,60.1,58.7,29.81,West,267,0.0,1.0,95,0.00,,OVC017,0.00,VWS V14.01,2013-06-02 07:43:00,
2013-06-02 02:48:00,60.0,58.6,29.81,NW,306,1.0,2.0,95,0.00,,OVC017,0.00,VWS V14.01,2013-06-02 07:48:00,
2013-06-02 02:50:00,60.0,58.6,29.81,NW,306,2.0,2.0,95,0.00,,CLR,0.00,VWS V14.01,2013-06-02 07:50:00,
2013-06-02 02:53:00,60.0,58.6,29.81,NW,304,1.0,2.0,95,0.00,,OVC017,0.00,VWS V14.01,2013-06-02 07:53:00,
2013-06-02 02:58:00,60.0,58.6,29.80,NW,306,0.0,1.0,95,0.00,,OVC017,0.00,VWS V14.01,2013-06-02 07:58:00,
2013-06-02 03:00:00,60.0,58.6,29.80,NW,306,1.0,5.0,95,0.00,,CLR,0.00,VWS V14.01,2013-06-02 08:00:00,
2013-06-02 03:03:00,59.9,58.5,29.81,WNW,285,2.0,2.0,95,0.00,,OVC019,0.00,VWS V14.01,2013-06-02 08:03:00,
2013-06-02 03:09:00,60.0,58.6,29.81,NW,304,0.0,1.0,95,0.00,,OVC019,0.00,VWS V14.01,2013-06-02 08:09:00,
2013-06-02 03:10:00,59.9,58.5,29.81,NW,305,1.0,2.0,95,0.00,,CLR,0.00,VWS V14.01,2013-06-02 08:10:00,
2013-06-02 03:14:00,60.0,58.6,29.81,WNW,297,0.0,2.0,95,0.00,,OVC019,0.00,VWS V14.01,2013-06-02 08:14:00,
2013-06-02 03:19:00,60.0,58.6,29.82,WNW,291,1.0,1.0,95,0.00,,OVC019,0.00,VWS V14.01,2013-06-02 08:19:00,
2013-06-02 03:20:00,60.0,58.6,29.82,WNW,300,1.0,2.0,95,0.00,,CLR,0.00,VWS V14.01,2013-06-02 08:20:00,
2013-06-02 03:24:00,60.0,58.9,29.82,WNW,300,0.0,3.0,96,0.00,,OVC019,0.00,VWS V14.01,2013-06-02 08:24:00,
2013-06-02 03:29:00,60.0,58.9,29.82,WNW,300,1.0,1.0,96,0.00,,OVC019,0.00,VWS V14.01,2013-06-02 08:29:00,
2013-06-02 03:30:00,59.9,58.8,29.82,WNW,300,0.0,3.0,96,0.00,,CLR,0.00,VWS V14.01,2013-06-02 08:30:00,
2013-06-02 03:34:00,59.9,58.8,29.82,WNW,297,1.0,3.0,96,0.00,,OVC019,0.00,VWS V14.01,2013-06-02 08:34:00,
2013-06-02 03:39:00,59.9,58.8,29.82,WNW,295,1.0,1.0,96,0.00,,OVC019,0.00,VWS V14.01,2013-06-02 08:39:00,
2013-06-02 03:40:00,59.9,58.8,29.82,WNW,297,0.0,3.0,96,0.00,,CLR,0.00,VWS V14.01,2013-06-02 08:40:00,
2013-06-02 03:44:00,60.0,58.9,29.83,WNW,285,0.0,2.0,96,0.00,,OVC019,0.00,VWS V14.01,2013-06-02 08:44:00,
2013-06-02 03:49:00,60.0,58.9,29.83,NW,314,1.0,1.0,96,0.00,,OVC019,0.00,VWS V14.01,2013-06-02 08:49:00,
2013-06-02 03:50:00,60.0,58.9,29.83,NW,311,1.0,3.0,96,0.00,,CLR,0.00,VWS V14.01,2013-06-02 08:50:00,
2013-06-02 03:54:00,60.0,58.9,29.83,WNW,284,0.0,1.0,96,0.00,,OVC019,0.00,VWS V14.01,2013-06-02 08:54:00,
2013-06-02 03:59:00,60.1,59.0,29.83,WNW,298,1.0,2.0,96,0.00,,OVC019,0.00,VWS V14.01,2013-06-02 08:59:00,
2013-06-02 04:00:00,60.0,58.9,29.83,SW,236,1.0,2.0,96,0.00,,CLR,0.00,VWS V14.01,2013-06-02 09:00:00,
2013-06-02 04:04:00,60.1,59.0,29.83,West,260,1.0,2.0,96,0.00,,OVC017,0.00,VWS V14.01,2013-06-02 09:04:00,
2013-06-02 04:09:00,60.1,59.0,29.83,WNW,297,1.0,1.0,96,0.00,,OVC017,0.00,VWS V14.01,2013-06-02 09:09:00,
2013-06-02 04:10:00,60.1,59.0,29.83,West,260,1.0,4.0,96,0.00,,CLR,0.00,VWS V14.01,2013-06-02 09:10:00,
2013-06-02 04:14:00,60.2,59.1,29.83,WNW,285,1.0,3.0,96,0.00,,OVC017,0.00,VWS V14.01,2013-06-02 09:14:00,
2013-06-02 04:19:00,60.2,59.1,29.84,WNW,285,0.0,0.0,96,0.00,,OVC017,0.00,VWS V14.01,2013-06-02 09:19:00,
2013-06-02 04:20:00,60.2,59.1,29.83,WNW,285,0.0,3.0,96,0.00,,CLR,0.00,VWS V14.01,2013-06-02 09:20:00,
2013-06-02 04:24:00,60.2,59.1,29.84,WNW,284,0.0,0.0,96,0.00,,OVC017,0.00,VWS V14.01,2013-06-02 09:24:00,
2013-06-02 04:30:00,60.3,59.2,29.84,WNW,287,0.0,3.0,96,0.00,,OVC017,0.00,VWS V14.01,2013-06-02 09:30:00,
2013-06-02 04:35:00,60.4,59.3,29.84,WNW,287,0.0,3.0,96,0.00,,OVC017,0.00,VWS V14.01,2013-06-02 09:35:00,
2013-06-02 04:40:00,60.5,59.4,29.85,NW,307,0.0,2.0,96,0.00,,OVC017,0.00,VWS V14.01,2013-06-02 09:40:00,
2013-06-02 04:45:00,60.5,59.4,29.85,NW,306,1.0,2.0,96,0.00,,OVC017,0.00,VWS V14.01,2013-06-02 09:45:00,
2013-06-02 04:50:00,60.7,59.6,29.85,NW,309,0.0,1.0,96,0.00,,OVC017,0.00,VWS V14.01,2013-06-02 09:50:00,
2013-06-02 04:55:00,60.8,59.7,29.85,West,280,0.0,3.0,96,0.00,,OVC017,0.00,VWS V14.01,2013-06-02 09:55:00,
2013-06-02 05:00:00,60.9,59.8,29.85,West,280,0.0,1.0,96,0.00,,OVC017,0.00,VWS V14.01,2013-06-02 10:00:00,
2013-06-02 05:05:00,60.9,59.8,29.86,NNW,328,0.0,2.0,96,0.00,,OVC017,0.00,VWS V14.01,2013-06-02 10:05:00,
2013-06-02 05:10:00,61.0,59.9,29.86,NW,326,0.0,0.0,96,0.00,,OVC017,0.00,VWS V14.01,2013-06-02 10:10:00,
2013-06-02 05:15:00,61.1,60.0,29.86,WNW,296,1.0,2.0,96,0.00,,OVC017,0.00,VWS V14.01,2013-06-02 10:15:00,
2013-06-02 05:20:00,61.2,60.0,29.86,WNW,295,0.0,1.0,96,0.00,,OVC024,0.00,VWS V14.01,2013-06-02 10:20:00,
2013-06-02 05:25:00,61.3,59.9,29.86,West,269,1.0,1.0,95,0.00,,OVC024,0.00,VWS V14.01,2013-06-02 10:25:00,
2013-06-02 05:30:00,61.4,60.0,29.87,West,269,1.0,1.0,95,0.00,,OVC024,0.00,VWS V14.01,2013-06-02 10:30:00,
2013-06-02 05:35:00,61.4,60.0,29.87,WNW,285,0.0,2.0,95,0.00,,OVC024,0.00,VWS V14.01,2013-06-02 10:35:00,
2013-06-02 05:40:00,61.4,60.0,29.87,SW,236,0.0,1.0,95,0.00,,OVC022,0.00,VWS V14.01,2013-06-02 10:40:00,
2013-06-02 05:46:00,61.5,60.1,29.88,WNW,291,1.0,2.0,95,0.00,,OVC022,0.00,VWS V14.01,2013-06-02 10:46:00,
2013-06-02 05:50:00,61.5,59.8,29.88,WNW,300,1.0,2.0,94,0.00,,CLR,0.00,VWS V14.01,2013-06-02 10:50:00,
2013-06-02 05:51:00,61.6,59.9,29.88,West,276,0.0,2.0,94,0.00,,OVC022,0.00,VWS V14.01,2013-06-02 10:51:00,
2013-06-02 05:56:00,61.7,60.0,29.88,West,277,0.0,2.0,94,0.00,,OVC022,0.00,VWS V14.01,2013-06-02 10:56:00,
2013-06-02 06:00:00,61.7,60.0,29.88,West,277,0.0,2.0,94,0.00,,CLR,0.00,VWS V14.01,2013-06-02 11:00:00,
2013-06-02 06:01:00,61.7,60.0,29.87,WNW,287,0.0,0.0,94,0.00,,OVC017,0.00,VWS V14.01,2013-06-02 11:01:00,
2013-06-02 06:06:00,61.6,59.6,29.88,NW,313,0.0,0.0,93,0.00,,OVC017,0.00,VWS V14.01,2013-06-02 11:06:00,
2013-06-02 06:10:00,61.6,59.6,29.88,NW,319,0.0,0.0,93,0.00,,CLR,0.00,VWS V14.01,2013-06-02 11:10:00,
2013-06-02 06:11:00,61.5,59.5,29.87,NW,322,0.0,2.0,93,0.00,,OVC017,0.00,VWS V14.01,2013-06-02 11:11:00,
2013-06-02 06:16:00,61.5,59.5,29.88,NW,322,1.0,2.0,93,0.00,,OVC017,0.00,VWS V14.01,2013-06-02 11:16:00,
2013-06-02 06:20:00,61.5,59.2,29.88,NW,308,1.0,4.0,92,0.00,,CLR,0.00,VWS V14.01,2013-06-02 11:20:00,
2013-06-02 06:21:00,61.4,59.1,29.87,NNW,344,0.0,2.0,92,0.00,,OVC017,0.00,VWS V14.01,2013-06-02 11:21:00,
2013-06-02 06:26:00,61.4,58.8,29.87,NW,321,2.0,2.0,91,0.00,,OVC017,0.00,VWS V14.01,2013-06-02 11:26:00,
2013-06-02 06:30:00,61.4,58.8,29.87,NNW,330,1.0,2.0,91,0.00,,CLR,0.00,VWS V14.01,2013-06-02 11:30:00,
2013-06-02 06:31:00,61.3,58.7,29.87,WNW,285,2.0,3.0,91,0.00,,OVC017,0.00,VWS V14.01,2013-06-02 11:31:00,
2013-06-02 06:36:00,61.3,58.7,29.88,NW,312,0.0,3.0,91,0.00,,OVC017,0.00,VWS V14.01,2013-06-02 11:36:00,
2013-06-02 06:40:00,61.3,58.7,29.88,WNW,288,1.0,3.0,91,0.00,,CLR,0.00,VWS V14.01,2013-06-02 11:40:00,
2013-06-02 06:41:00,61.2,58.6,29.88,NW,314,1.0,2.0,91,0.00,,OVC046,0.00,VWS V14.01,2013-06-02 11:41:00,
2013-06-02 06:46:00,61.2,58.6,29.88,NW,305,1.0,2.0,91,0.00,,OVC046,0.00,VWS V14.01,2013-06-02 11:46:00,
2013-06-02 06:50:00,61.2,58.6,29.88,NW,305,0.0,2.0,91,0.00,,CLR,0.00,VWS V14.01,2013-06-02 11:50:00,
2013-06-02 06:51:00,61.1,58.5,29.89,NNW,336,1.0,5.0,91,0.00,,OVC046,0.00,VWS V14.01,2013-06-02 11:51:00,
2013-06-02 06:56:00,61.0,58.4,29.89,North,354,2.0,5.0,91,0.00,,OVC046,0.00,VWS V14.01,2013-06-02 11:56:00,
2013-06-02 07:00:00,61.1,58.5,29.89,NW,306,2.0,5.0,91,0.00,,CLR,0.00,VWS V14.01,2013-06-02 12:00:00,
2013-06-02 07:02:00,61.0,58.0,29.89,NW,316,0.0,4.0,90,0.00,,OVC017,0.00,VWS V14.01,2013-06-02 12:02:00,
2013-06-02 07:07:00,61.0,58.0,29.90,NW,311,0.0,4.0,90,0.00,,OVC017,0.00,VWS V14.01,2013-06-02 12:07:00,
2013-06-02 07:10:00,61.0,58.0,29.90,NE,34,3.0,8.0,90,0.00,,CLR,0.00,VWS V14.01,2013-06-02 12:10:00,
2013-06-02 07:12:00,60.9,58.0,29.90,WNW,295,0.0,3.0,90,0.00,,OVC017,0.00,VWS V14.01,2013-06-02 12:12:00,
2013-06-02 07:17:00,60.8,57.5,29.90,NNE,13,1.0,3.0,89,0.00,,OVC017,0.00,VWS V14.01,2013-06-02 12:17:00,
2013-06-02 07:20:00,60.7,57.4,29.90,NW,304,0.0,3.0,89,0.00,,CLR,0.00,VWS V14.01,2013-06-02 12:20:00,
2013-06-02 07:22:00,60.7,57.4,29.90,NW,305,2.0,3.0,89,0.00,,OVC045,0.00,VWS V14.01,2013-06-02 12:22:00,
2013-06-02 07:27:00,60.7,57.1,29.90,NW,323,0.0,3.0,88,0.00,,OVC045,0.00,VWS V14.01,2013-06-02 12:27:00,
2013-06-02 07:30:00,60.7,57.1,29.90,NW,309,0.0,3.0,88,0.00,,CLR,0.00,VWS V14.01,2013-06-02 12:30:00,
2013-06-02 07:32:00,60.7,57.1,29.90,NW,325,0.0,2.0,88,0.00,,OVC045,0.00,VWS V14.01,2013-06-02 12:32:00,
2013-06-02 07:37:00,60.9,57.3,29.91,NW,318,0.0,3.0,88,0.00,,OVC045,0.00,VWS V14.01,2013-06-02 12:37:00,
2013-06-02 07:40:00,60.8,57.2,29.91,NNW,330,0.0,3.0,88,0.00,,CLR,0.00,VWS V14.01,2013-06-02 12:40:00,
2013-06-02 07:42:00,60.8,57.2,29.91,NNE,15,0.0,4.0,88,0.00,,OVC045,0.00,VWS V14.01,2013-06-02 12:42:00,
2013-06-02 07:47:00,60.7,56.8,29.91,NW,316,0.0,4.0,87,0.00,,OVC045,0.00,VWS V14.01,2013-06-02 12:47:00,
2013-06-02 07:50:00,60.7,57.1,29.91,North,11,0.0,4.0,88,0.00,,CLR,0.00,VWS V14.01,2013-06-02 12:50:00,
2013-06-02 07:52:00,60.6,56.7,29.91,NNW,328,4.0,4.0,87,0.00,,OVC045,0.00,VWS V14.01,2013-06-02 12:52:00,
2013-06-02 07:57:00,60.5,56.9,29.91,NNW,328,2.0,5.0,88,0.00,,OVC045,0.00,VWS V14.01,2013-06-02 12:57:00,
2013-06-02 08:00:00,60.5,56.6,29.91,NNW,338,1.0,5.0,87,0.00,,CLR,0.00,VWS V14.01,2013-06-02 13:00:00,
2013-06-02 08:02:00,60.4,56.8,29.91,NNW,342,1.0,3.0,88,0.00,,OVC043,0.00,VWS V14.01,2013-06-02 13:02:00,
2013-06-02 08:07:00,60.5,56.9,29.91,NNW,340,0.0,3.0,88,0.00,,OVC043,0.00,VWS V14.01,2013-06-02 13:07:00,
2013-06-02 08:10:00,60.4,56.8,29.91,NW,323,1.0,3.0,88,0.00,,CLR,0.00,VWS V14.01,2013-06-02 13:10:00,
2013-06-02 08:12:00,60.5,56.9,29.92,NNW,333,1.0,3.0,88,0.00,,OVC043,0.00,VWS V14.01,2013-06-02 13:12:00,
2013-06-02 08:18:00,60.5,56.6,29.92,NW,320,0.0,3.0,87,0.00,,OVC043,0.00,VWS V14.01,2013-06-02 13:18:00,
2013-06-02 08:20:00,60.5,56.6,29.92,WSW,248,1.0,3.0,87,0.00,,CLR,0.00,VWS V14.01,2013-06-02 13:20:00,
2013-06-02 08:23:00,60.4,56.5,29.92,NW,321,1.0,4.0,87,0.00,,OVC041,0.00,VWS V14.01,2013-06-02 13:23:00,
2013-06-02 08:28:00,60.4,56.5,29.93,NNE,20,2.0,4.0,87,0.00,,OVC041,0.00,VWS V14.01,2013-06-02 13:28:00,
2013-06-02 08:30:00,60.3,56.4,29.93,North,7,1.0,4.0,87,0.00,,CLR,0.00,VWS V14.01,2013-06-02 13:30:00,
2013-06-02 08:33:00,60.3,56.4,29.93,NW,319,0.0,3.0,87,0.00,,OVC041,0.00,VWS V14.01,2013-06-02 13:33:00,
2013-06-02 08:38:00,60.2,56.6,29.93,WNW,295,3.0,4.0,88,0.00,,OVC041,0.00,VWS V14.01,2013-06-02 13:38:00,
2013-06-02 08:40:00,60.2,56.6,29.93,North,349,2.0,4.0,88,0.00,,CLR,0.00,VWS V14.01,2013-06-02 13:40:00,
2013-06-02 08:43:00,60.2,56.6,29.93,NNW,335,0.0,2.0,88,0.00,,OVC041,0.00,VWS V14.01,2013-06-02 13:43:00,
2013-06-02 08:48:00,60.3,56.7,29.93,NW,314,0.0,3.0,88,0.00,,OVC041,0.00,VWS V14.01,2013-06-02 13:48:00,
2013-06-02 08:50:00,60.3,56.7,29.93,NW,315,0.0,3.0,88,0.00,,CLR,0.00,VWS V14.01,2013-06-02 13:50:00,
2013-06-02 08:53:00,60.6,57.0,29.93,NW,324,2.0,3.0,88,0.00,,OVC041,0.00,VWS V14.01,2013-06-02 13:53:00,
2013-06-02 08:58:00,60.9,57.0,29.92,WNW,298,2.0,2.0,87,0.00,,OVC041,0.00,VWS V14.01,2013-06-02 13:58:00,
2013-06-02 09:00:00,60.9,57.0,29.92,WNW,283,1.0,4.0,87,0.00,,CLR,0.00,VWS V14.01,2013-06-02 14:00:00,
2013-06-02 09:03:00,61.0,56.8,29.93,ESE,107,1.0,3.0,86,0.00,,OVC016,0.00,VWS V14.01,2013-06-02 14:03:00,
2013-06-02 09:08:00,61.1,56.9,29.93,NW,315,1.0,2.0,86,0.00,,OVC016,0.00,VWS V14.01,2013-06-02 14:08:00,
2013-06-02 09:10:00,61.1,56.9,29.93,WNW,284,1.0,3.0,86,0.00,,CLR,0.00,VWS V14.01,2013-06-02 14:10:00,
2013-06-02 09:13:00,61.0,56.8,29.93,WNW,298,1.0,3.0,86,0.00,,OVC016,0.00,VWS V14.01,2013-06-02 14:13:00,
2013-06-02 09:19:00,61.1,57.2,29.93,NW,316,0.0,0.0,87,0.00,,OVC016,0.00,VWS V14.01,2013-06-02 14:19:00,
2013-06-02 09:20:00,61.1,57.2,29.93,NW,316,0.0,3.0,87,0.00,,CLR,0.00,VWS V14.01,2013-06-02 14:20:00,
2013-06-02 09:24:00,61.2,57.0,29.93,NW,322,1.0,3.0,86,0.00,,OVC016,0.00,VWS V14.01,2013-06-02 14:24:00,
2013-06-02 09:29:00,61.1,56.6,29.93,NW,324,2.0,2.0,85,0.00,,OVC016,0.00,VWS V14.01,2013-06-02 14:29:00,
2013-06-02 09:30:00,61.1,56.6,29.93,NW,316,0.0,3.0,85,0.00,,CLR,0.00,VWS V14.01,2013-06-02 14:30:00,
2013-06-02 09:34:00,60.8,56.6,29.94,WNW,300,1.0,2.0,86,0.00,,OVC016,0.00,VWS V14.01,2013-06-02 14:34:00,
2013-06-02 09:39:00,60.4,56.2,29.94,NW,306,1.0,4.0,86,0.00,,OVC016,0.00,VWS V14.01,2013-06-02 14:39:00,
2013-06-02 09:40:00,60.5,56.0,29.94,NNW,330,0.0,4.0,85,0.00,,CLR,0.00,VWS V14.01,2013-06-02 14:40:00,
2013-06-02 09:44:00,60.1,55.9,29.94,NW,321,1.0,4.0,86,0.00,,OVC016,0.00,VWS V14.01,2013-06-02 14:44:00,
2013-06-02 09:49:00,60.0,56.1,29.94,NW,316,0.0,1.0,87,0.00,,OVC016,0.00,VWS V14.01,2013-06-02 14:49:00,
2013-06-02 09:50:00,60.0,56.1,29.94,NNW,346,0.0,4.0,87,0.00,,CLR,0.00,VWS V14.01,2013-06-02 14:50:00,
2013-06-02 09:54:00,60.1,56.2,29.94,SSE,150,2.0,2.0,87,0.00,,OVC016,0.00,VWS V14.01,2013-06-02 14:54:00,
2013-06-02 09:59:00,60.2,56.0,29.94,NW,313,2.0,2.0,86,0.00,,OVC016,0.00,VWS V14.01,2013-06-02 14:59:00,
2013-06-02 10:00:00,60.2,56.0,29.94,WNW,300,1.0,2.0,86,0.00,,CLR,0.00,VWS V14.01,2013-06-02 15:00:00,
2013-06-02 10:04:00,60.1,55.6,29.95,NW,311,0.0,3.0,85,0.00,,OVC016,0.00,VWS V14.01,2013-06-02 15:04:00,
2013-06-02 10:09:00,60.1,55.9,29.95,NW,306,0.0,1.0,86,0.00,,OVC016,0.00,VWS V14.01,2013-06-02 15:09:00,
2013-06-02 10:10:00,60.1,55.9,29.95,NW,316,0.0,4.0,86,0.00,,CLR,0.00,VWS V14.01,2013-06-02 15:10:00,
2013-06-02 10:14:00,60.1,55.9,29.95,NW,316,1.0,2.0,86,0.00,,OVC016,0.00,VWS V14.01,2013-06-02 15:14:00,
2013-06-02 10:19:00,60.0,55.8,29.95,NNW,333,0.0,2.0,86,0.00,,OVC016,0.00,VWS V14.01,2013-06-02 15:19:00,
2013-06-02 10:20:00,60.1,55.9,29.95,NW,304,0.0,2.0,86,0.00,,CLR,0.00,VWS V14.01,2013-06-02 15:20:00,
2013-06-02 10:24:00,59.9,55.7,29.95,NW,312,1.0,3.0,86,0.00,,RA,0.00,VWS V14.01,2013-06-02 15:24:00,
2013-06-02 10:30:00,59.7,55.5,29.96,ESE,108,0.0,2.0,86,0.00,,RA,0.00,VWS V14.01,2013-06-02 15:30:00,
2013-06-02 10:35:00,59.6,55.7,29.96,NNW,328,1.0,3.0,87,0.00,,RA,0.00,VWS V14.01,2013-06-02 15:35:00,
2013-06-02 10:40:00,59.5,55.6,29.96,NW,305,1.0,2.0,87,0.00,,-RA,0.00,VWS V14.01,2013-06-02 15:40:00,
2013-06-02 10:45:00,59.5,55.6,29.96,WNW,295,1.0,3.0,87,0.00,,-RA,0.00,VWS V14.01,2013-06-02 15:45:00,
2013-06-02 10:50:00,59.5,55.6,29.97,NNW,338,2.0,3.0,87,0.00,,-RA,0.00,VWS V14.01,2013-06-02 15:50:00,
2013-06-02 10:55:00,59.6,55.7,29.97,NNW,334,1.0,6.0,87,0.00,,-RA,0.00,VWS V14.01,2013-06-02 15:55:00,
2013-06-02 11:00:00,59.5,56.0,29.97,WNW,300,0.0,1.0,88,0.00,,OVC018,0.00,VWS V14.01,2013-06-02 16:00:00,
2013-06-02 11:05:00,59.5,55.6,29.97,NW,323,0.0,4.0,87,0.00,,OVC018,0.00,VWS V14.01,2013-06-02 16:05:00,
2013-06-02 11:10:00,59.4,55.8,29.98,NW,319,1.0,2.0,88,0.00,,OVC018,0.00,VWS V14.01,2013-06-02 16:10:00,
2013-06-02 11:15:00,59.5,56.0,29.97,SE,124,0.0,2.0,88,0.00,,OVC018,0.00,VWS V14.01,2013-06-02 16:15:00,
2013-06-02 11:20:00,59.7,56.2,29.98,NW,323,0.0,2.0,88,0.00,,OVC020,0.00,VWS V14.01,2013-06-02 16:20:00,
2013-06-02 11:25:00,59.6,56.0,29.98,NNE,14,1.0,3.0,88,0.00,,OVC020,0.00,VWS V14.01,2013-06-02 16:25:00,
2013-06-02 11:30:00,59.2,55.7,29.98,NW,309,1.0,3.0,88,0.00,,OVC020,0.00,VWS V14.01,2013-06-02 16:30:00,
2013-06-02 11:36:00,58.9,55.7,29.98,North,349,1.0,3.0,89,0.00,,OVC020,0.00,VWS V14.01,2013-06-02 16:36:00,
2013-06-02 11:40:00,58.8,55.6,29.98,NW,323,0.0,3.0,89,0.00,,CLR,0.00,VWS V14.01,2013-06-02 16:40:00,
2013-06-02 11:41:00,58.9,56.0,29.98,WNW,297,1.0,2.0,90,0.00,,OVC020,0.00,VWS V14.01,2013-06-02 16:41:00,
2013-06-02 11:46:00,59.0,56.1,29.98,WNW,300,0.0,3.0,90,0.00,,OVC020,0.00,VWS V14.01,2013-06-02 16:46:00,
2013-06-02 11:50:00,59.2,56.3,29.98,North,8,1.0,3.0,90,0.00,,CLR,0.00,VWS V14.01,2013-06-02 16:50:00,
2013-06-02 11:51:00,59.2,56.0,29.98,NW,323,0.0,2.0,89,0.00,,OVC020,0.00,VWS V14.01,2013-06-02 16:51:00,
2013-06-02 11:56:00,59.5,56.3,29.98,NW,315,1.0,3.0,89,0.00,,OVC020,0.00,VWS V14.01,2013-06-02 16:56:00,
2013-06-02 12:00:00,59.5,56.3,29.98,WNW,295,0.0,3.0,89,0.00,,CLR,0.00,VWS V14.01,2013-06-02 17:00:00,
2013-06-02 12:01:00,59.6,56.4,29.98,WNW,297,0.0,1.0,89,0.00,,OVC020,0.00,VWS V14.01,2013-06-02 17:01:00,
2013-06-02 12:06:00,59.6,56.4,29.98,NNW,337,1.0,2.0,89,0.00,,OVC020,0.00,VWS V14.01,2013-06-02 17:06:00,
2013-06-02 12:10:00,59.6,56.4,29.98,NW,311,0.0,2.0,89,0.00,,CLR,0.00,VWS V14.01,2013-06-02 17:10:00,
2013-06-02 12:11:00,59.5,56.6,29.98,NE,39,1.0,2.0,90,0.00,,OVC020,0.00,VWS V14.01,2013-06-02 17:11:00,
2013-06-02 12:16:00,59.1,56.2,29.98,South,170,0.0,3.0,90,0.00,,OVC020,0.00,VWS V14.01,2013-06-02 17:16:00,
2013-06-02 12:20:00,58.9,56.0,29.98,NW,306,0.0,3.0,90,0.00,,CLR,0.00,VWS V14.01,2013-06-02 17:20:00,
2013-06-02 12:21:00,58.8,56.2,29.98,WNW,293,1.0,1.0,91,0.00,,OVC020,0.00,VWS V14.01,2013-06-02 17:21:00,
2013-06-02 12:26:00,58.5,56.2,29.98,NW,313,0.0,3.0,92,0.01,,OVC020,0.01,VWS V14.01,2013-06-02 17:26:00,
2013-06-02 12:30:00,58.3,56.0,29.98,NW,315,0.0,3.0,92,0.01,,CLR,0.01,VWS V14.01,2013-06-02 17:30:00,
2013-06-02 12:31:00,58.1,55.8,29.98,NW,304,0.0,3.0,92,0.01,,OVC020,0.01,VWS V14.01,2013-06-02 17:31:00,
2013-06-02 12:36:00,57.9,55.9,29.99,NNE,13,0.0,3.0,93,0.01,,OVC020,0.01,VWS V14.01,2013-06-02 17:36:00,
2013-06-02 12:40:00,57.9,55.9,29.99,NNE,18,0.0,3.0,93,0.01,,CLR,0.01,VWS V14.01,2013-06-02 17:40:00,
2013-06-02 12:42:00,57.8,55.8,29.99,SE,128,1.0,2.0,93,0.01,,OVC028,0.01,VWS V14.01,2013-06-02 17:42:00,
2013-06-02 12:47:00,57.7,56.0,29.99,NNW,345,0.0,2.0,94,0.01,,OVC028,0.01,VWS V14.01,2013-06-02 17:47:00,
2013-06-02 12:50:00,57.8,56.1,29.99,WNW,303,0.0,2.0,94,0.01,,CLR,0.01,VWS V14.01,2013-06-02 17:50:00,
2013-06-02 12:52:00,57.6,55.9,30.00,NNW,340,0.0,2.0,94,0.01,,OVC028,0.01,VWS V14.01,2013-06-02 17:52:00,
2013-06-02 12:57:00,57.6,55.9,30.00,NW,308,0.0,4.0,94,0.01,,OVC028,0.01,VWS V14.01,2013-06-02 17:57:00,
2013-06-02 13:00:00,57.6,55.9,30.00,NW,308,0.0,4.0,94,0.01,,CLR,0.01,VWS V14.01,2013-06-02 18:00:00,
2013-06-02 13:02:00,57.8,56.4,30.00,NW,306,0.0,1.0,95,0.01,,OVC023,0.01,VWS V14.01,2013-06-02 18:02:00,
2013-06-02 13:07:00,58.1,56.7,30.00,NW,306,1.0,1.0,95,0.01,,OVC023,0.01,VWS V14.01,2013-06-02 18:07:00,
2013-06-02 13:10:00,58.0,56.3,30.00,West,276,0.0,1.0,94,0.01,,CLR,0.01,VWS V14.01,2013-06-02 18:10:00,
2013-06-02 13:12:00,58.0,56.3,30.00,WNW,287,0.0,0.0,94,0.01,,OVC023,0.01,VWS V14.01,2013-06-02 18:12:00,
2013-06-02 13:17:00,58.0,56.3,30.00,WNW,287,0.0,0.0,94,0.01,,OVC023,0.01,VWS V14.01,2013-06-02 18:17:00,
2013-06-02 13:20:00,58.0,56.3,30.00,WNW,287,0.0,0.0,94,0.01,,CLR,0.01,VWS V14.01,2013-06-02 18:20:00,
2013-06-02 13:22:00,58.2,56.5,30.00,NW,312,1.0,1.0,94,0.01,,OVC031,0.01,VWS V14.01,2013-06-02 18:22:00,
2013-06-02 13:27:00,58.6,56.6,30.00,WNW,300,1.0,3.0,93,0.01,,OVC031,0.01,VWS V14.01,2013-06-02 18:27:00,
2013-06-02 13:30:00,58.7,56.7,30.00,WNW,300,0.0,3.0,93,0.01,,CLR,0.01,VWS V14.01,2013-06-02 18:30:00,
2013-06-02 13:32:00,59.0,56.7,30.00,NW,309,0.0,2.0,92,0.00,,OVC031,0.01,VWS V14.01,2013-06-02 18:32:00,
2013-06-02 13:37:00,59.6,57.0,30.00,West,281,0.0,3.0,91,0.00,,OVC031,0.01,VWS V14.01,2013-06-02 18:37:00,
2013-06-02 13:40:00,59.8,57.2,30.00,West,281,0.0,3.0,91,0.00,,CLR,0.01,VWS V14.01,2013-06-02 18:40:00,
2013-06-02 13:42:00,60.0,57.1,30.00,NNE,16,2.0,5.0,90,0.00,,OVC033,0.01,VWS V14.01,2013-06-02 18:42:00,
2013-06-02 13:47:00,59.9,56.7,30.00,NW,326,0.0,5.0,89,0.00,,OVC033,0.01,VWS V14.01,2013-06-02 18:47:00,
2013-06-02 13:50:00,59.9,56.7,30.00,NW,304,1.0,5.0,89,0.00,,CLR,0.01,VWS V14.01,2013-06-02 18:50:00,
2013-06-02 13:52:00,59.6,56.0,30.00,SE,124,0.0,2.0,88,0.00,,OVC033,0.01,VWS V14.01,2013-06-02 18:52:00,
2013-06-02 13:57:00,59.5,56.3,30.00,NW,308,3.0,3.0,89,0.00,,OVC033,0.01,VWS V14.01,2013-06-02 18:57:00,
2013-06-02 14:00:00,59.5,56.3,30.00,WNW,290,1.0,3.0,89,0.00,,CLR,0.01,VWS V14.01,2013-06-02 19:00:00,
2013-06-02 14:03:00,59.5,56.6,30.00,North,1,1.0,2.0,90,0.00,,OVC034,0.01,VWS V14.01,2013-06-02 19:03:00,
2013-06-02 14:08:00,59.9,57.0,30.00,North,1,0.0,2.0,90,0.00,,OVC034,0.01,VWS V14.01,2013-06-02 19:08:00,
2013-06-02 14:10:00,59.9,57.0,30.00,NW,324,0.0,2.0,90,0.00,,CLR,0.01,VWS V14.01,2013-06-02 19:10:00,
2013-06-02 14:13:00,60.3,57.0,30.00,West,262,0.0,1.0,89,0.00,,OVC034,0.01,VWS V14.01,2013-06-02 19:13:00,
2013-06-02 14:18:00,60.5,56.3,30.00,WNW,288,1.0,2.0,86,0.00,,OVC034,0.01,VWS V14.01,2013-06-02 19:18:00,
2013-06-02 14:20:00,60.4,56.2,30.00,WNW,288,0.0,2.0,86,0.00,,CLR,0.01,VWS V14.01,2013-06-02 19:20:00,
2013-06-02 14:23:00,60.3,56.1,30.00,NW,319,1.0,2.0,86,0.00,,OVC031,0.01,VWS V14.01,2013-06-02 19:23:00,
2013-06-02 14:28:00,60.0,55.5,30.00,NW,311,1.0,2.0,85,0.00,,OVC031,0.01,VWS V14.01,2013-06-02 19:28:00,
2013-06-02 14:30:00,59.9,55.4,30.00,NW,311,0.0,2.0,85,0.00,,CLR,0.01,VWS V14.01,2013-06-02 19:30:00,
2013-06-02 14:33:00,59.7,55.5,30.01,WSW,252,0.0,1.0,86,0.00,,OVC031,0.01,VWS V14.01,2013-06-02 19:33:00,
2013-06-02 14:38:00,59.6,55.1,30.01,NW,309,0.0,1.0,85,0.00,,OVC031,0.01,VWS V14.01,2013-06-02 19:38:00,
2013-06-02 14:40:00,59.6,55.1,30.01,NW,309,0.0,1.0,85,0.00,,CLR,0.01,VWS V14.01,2013-06-02 19:40:00,
2013-06-02 14:43:00,59.4,54.9,30.01,NW,314,0.0,0.0,85,0.00,,OVC029,0.01,VWS V14.01,2013-06-02 19:43:00,
2013-06-02 14:48:00,59.4,54.9,30.01,NW,315,0.0,0.0,85,0.00,,OVC029,0.01,VWS V14.01,2013-06-02 19:48:00,
2013-06-02 14:50:00,59.4,54.9,30.01,NW,315,0.0,0.0,85,0.00,,CLR,0.01,VWS V14.01,2013-06-02 19:50:00,
2013-06-02 14:53:00,59.4,54.9,30.01,WNW,295,0.0,1.0,85,0.00,,OVC029,0.01,VWS V14.01,2013-06-02 19:53:00,
2013-06-02 14:58:00,59.5,55.0,30.01,WNW,295,0.0,0.0,85,0.00,,OVC029,0.01,VWS V14.01,2013-06-02 19:58:00,
2013-06-02 15:00:00,59.5,55.0,30.01,WNW,295,0.0,1.0,85,0.00,,CLR,0.01,VWS V14.01,2013-06-02 20:00:00,
2013-06-02 15:03:00,59.8,55.6,30.01,WNW,291,0.0,1.0,86,0.00,,OVC031,0.01,VWS V14.01,2013-06-02 20:03:00,
2013-06-02 15:08:00,60.1,55.6,30.01,SW,232,0.0,0.0,85,0.00,,OVC031,0.01,VWS V14.01,2013-06-02 20:08:00,
2013-06-02 15:10:00,60.1,55.9,30.01,SW,232,0.0,2.0,86,0.00,,CLR,0.01,VWS V14.01,2013-06-02 20:10:00,
2013-06-02 15:13:00,60.5,56.3,30.01,SW,231,0.0,0.0,86,0.00,,OVC031,0.01,VWS V14.01,2013-06-02 20:13:00,
2013-06-02 15:19:00,60.8,55.9,30.01,WSW,240,0.0,0.0,84,0.00,,OVC031,0.01,VWS V14.01,2013-06-02 20:19:00,
2013-06-02 15:20:00,60.8,55.9,30.01,WSW,240,0.0,0.0,84,0.00,,CLR,0.01,VWS V14.01,2013-06-02 20:20:00,
2013-06-02 15:24:00,61.1,55.9,30.01,NNW,330,0.0,2.0,83,0.00,,OVC031,0.01,VWS V14.01,2013-06-02 20:24:00,
2013-06-02 15:29:00,61.3,55.8,30.01,NNW,330,0.0,0.0,82,0.00,,OVC031,0.01,VWS V14.01,2013-06-02 20:29:00,
2013-06-02 15:30:00,61.3,55.8,30.01,NNW,330,0.0,2.0,82,0.00,,CLR,0.01,VWS V14.01,2013-06-02 20:30:00,
2013-06-02 15:34:00,61.4,56.2,30.01,NW,320,0.0,1.0,83,0.00,,OVC031,0.01,VWS V14.01,2013-06-02 20:34:00,
2013-06-02 15:39:00,61.1,54.9,30.01,NW,321,0.0,0.0,80,0.00,,OVC031,0.01,VWS V14.01,2013-06-02 20:39:00,
2013-06-02 15:40:00,61.1,54.9,30.01,NW,320,0.0,1.0,80,0.00,,CLR,0.01,VWS V14.01,2013-06-02 20:40:00,
2013-06-02 15:44:00,61.1,54.9,30.01,NW,320,0.0,0.0,80,0.00,,OVC031,0.01,VWS V14.01,2013-06-02 20:44:00,
2013-06-02 15:49:00,61.1,55.2,30.01,NNW,330,0.0,0.0,81,0.00,,OVC031,0.01,VWS V14.01,2013-06-02 20:49:00,
2013-06-02 15:50:00,61.1,55.2,30.01,NW,321,0.0,0.0,81,0.00,,CLR,0.01,VWS V14.01,2013-06-02 20:50:00,
2013-06-02 15:54:00,61.0,55.1,30.02,NNW,330,0.0,1.0,81,0.00,,OVC031,0.01,VWS V14.01,2013-06-02 20:54:00,
2013-06-02 15:59:00,61.0,54.8,30.01,NNW,330,0.0,0.0,80,0.00,,OVC031,0.01,VWS V14.01,2013-06-02 20:59:00,
2013-06-02 16:00:00,61.0,54.8,30.01,NNW,330,0.0,1.0,80,0.00,,CLR,0.01,VWS V14.01,2013-06-02 21:00:00,
2013-06-02 16:04:00,61.0,55.1,30.01,NNW,330,0.0,1.0,81,0.00,,OVC033,0.01,VWS V14.01,2013-06-02 21:04:00,
2013-06-02 16:09:00,60.8,54.9,30.01,NNW,332,0.0,0.0,81,0.00,,OVC033,0.01,VWS V14.01,2013-06-02 21:09:00,
2013-06-02 16:10:00,60.9,55.0,30.01,NNW,331,0.0,1.0,81,0.00,,CLR,0.01,VWS V14.01,2013-06-02 21:10:00,
2013-06-02 16:14:00,60.6,54.8,30.01,NNW,330,0.0,1.0,81,0.00,,OVC033,0.01,VWS V14.01,2013-06-02 21:14:00,
2013-06-02 16:19:00,60.4,54.9,30.01,NNW,330,0.0,0.0,82,0.00,,OVC033,0.01,VWS V14.01,2013-06-02 21:19:00,
2013-06-02 16:20:00,60.4,54.9,30.01,NNW,330,0.0,1.0,82,0.00,,CLR,0.01,VWS V14.01,2013-06-02 21:20:00,
2013-06-02 16:24:00,60.2,55.0,30.01,NNW,330,0.0,1.0,83,0.00,,OVC033,0.01,VWS V14.01,2013-06-02 21:24:00,
2013-06-02 16:29:00,60.1,55.3,30.01,SW,224,0.0,0.0,84,0.00,,OVC033,0.01,VWS V14.01,2013-06-02 21:29:00,
2013-06-02 16:30:00,60.1,54.9,30.01,SW,224,0.0,1.0,83,0.00,,CLR,0.01,VWS V14.01,2013-06-02 21:30:00,
2013-06-02 16:35:00,60.0,55.2,30.01,SW,224,0.0,0.0,84,0.00,,OVC033,0.01,VWS V14.01,2013-06-02 21:35:00,
2013-06-02 16:40:00,59.9,55.1,30.01,SW,224,0.0,0.0,84,0.00,,OVC036,0.01,VWS V14.01,2013-06-02 21:40:00,
2013-06-02 16:45:00,59.7,54.5,30.01,SW,231,0.0,0.0,83,0.00,,OVC036,0.01,VWS V14.01,2013-06-02 21:45:00,
2013-06-02 16:50:00,59.7,54.9,30.01,SW,231,0.0,0.0,84,0.00,,OVC036,0.01,VWS V14.01,2013-06-02 21:50:00,
2013-06-02 16:55:00,59.7,54.9,30.01,SW,231,0.0,0.0,84,0.00,,OVC036,0.01,VWS V14.01,2013-06-02 21:55:00,
2013-06-02 17:00:00,59.8,55.0,30.01,SW,231,0.0,0.0,84,0.00,,OVC036,0.01,VWS V14.01,2013-06-02 22:00:00,
2013-06-02 17:05:00,59.8,55.0,30.01,NNE,30,0.0,0.0,84,0.00,,OVC036,0.01,VWS V14.01,2013-06-02 22:05:00,
2013-06-02 17:10:00,59.8,54.6,30.01,NNE,30,0.0,0.0,83,0.00,,OVC036,0.01,VWS V14.01,2013-06-02 22:10:00,
2013-06-02 17:15:00,59.8,54.6,30.01,NW,308,0.0,0.0,83,0.00,,OVC036,0.01,VWS V14.01,2013-06-02 22:15:00,
2013-06-02 17:20:00,59.8,54.6,30.01,NW,309,0.0,0.0,83,0.00,,OVC038,0.01,VWS V14.01,2013-06-02 22:20:00,
2013-06-02 17:25:00,59.7,54.5,30.01,NNE,12,0.0,0.0,83,0.00,,OVC038,0.01,VWS V14.01,2013-06-02 22:25:00,
2013-06-02 17:30:00,59.5,54.0,30.01,NNE,18,0.0,0.0,82,0.00,,OVC038,0.01,VWS V14.01,2013-06-02 22:30:00,
2013-06-02 17:35:00,59.4,53.9,30.01,NNE,15,0.0,0.0,82,0.00,,OVC038,0.01,VWS V14.01,2013-06-02 22:35:00,
2013-06-02 17:40:00,59.4,53.6,30.01,NE,41,0.0,0.0,81,0.00,,OVC040,0.01,VWS V14.01,2013-06-02 22:40:00,
2013-06-02 17:45:00,59.4,53.6,30.01,NE,41,0.0,0.0,81,0.00,,OVC040,0.01,VWS V14.01,2013-06-02 22:45:00,
2013-06-02 17:50:00,59.5,54.0,30.01,NE,41,0.0,0.0,82,0.00,,CLR,0.01,VWS V14.01,2013-06-02 22:50:00,
2013-06-02 17:51:00,59.5,53.7,30.01,NW,314,0.0,0.0,81,0.00,,OVC040,0.01,VWS V14.01,2013-06-02 22:51:00,
2013-06-02 17:56:00,59.5,53.7,30.01,NE,40,0.0,1.0,81,0.00,,OVC040,0.01,VWS V14.01,2013-06-02 22:56:00,
2013-06-02 18:00:00,59.4,53.6,30.01,NE,39,0.0,1.0,81,0.00,,CLR,0.01,VWS V14.01,2013-06-02 23:00:00,
2013-06-02 18:01:00,59.4,53.6,30.01,NNE,32,0.0,1.0,81,0.00,,OVC044,0.01,VWS V14.01,2013-06-02 23:01:00,
2013-06-02 18:06:00,59.4,53.6,30.01,NNE,32,0.0,1.0,81,0.00,,OVC044,0.01,VWS V14.01,2013-06-02 23:06:00,
2013-06-02 18:10:00,59.4,53.6,30.01,NE,49,0.0,1.0,81,0.00,,CLR,0.01,VWS V14.01,2013-06-02 23:10:00,
2013-06-02 18:11:00,59.4,53.6,30.01,NE,48,0.0,0.0,81,0.00,,OVC044,0.01,VWS V14.01,2013-06-02 23:11:00,
2013-06-02 18:16:00,59.5,54.0,30.01,NE,49,0.0,0.0,82,0.00,,OVC044,0.01,VWS V14.01,2013-06-02 23:16:00,
2013-06-02 18:20:00,59.4,53.6,30.01,NE,48,0.0,1.0,81,0.00,,CLR,0.01,VWS V14.01,2013-06-02 23:20:00,
2013-06-02 18:21:00,59.4,53.6,30.01,NE,49,1.0,1.0,81,0.00,,OVC044,0.01,VWS V14.01,2013-06-02 23:21:00,
2013-06-02 18:26:00,59.4,53.6,30.01,ENE,58,0.0,1.0,81,0.00,,OVC044,0.01,VWS V14.01,2013-06-02 23:26:00,
2013-06-02 18:30:00,59.3,53.5,30.01,ENE,58,0.0,1.0,81,0.00,,CLR,0.01,VWS V14.01,2013-06-02 23:30:00,
2013-06-02 18:31:00,59.3,53.5,30.01,NE,56,0.0,0.0,81,0.00,,OVC044,0.01,VWS V14.01,2013-06-02 23:31:00,
2013-06-02 18:36:00,59.3,53.5,30.01,NNE,32,0.0,1.0,81,0.00,,OVC044,0.01,VWS V14.01,2013-06-02 23:36:00,
2013-06-02 18:40:00,59.3,53.5,30.01,NE,34,0.0,1.0,81,0.00,,CLR,0.01,VWS V14.01,2013-06-02 23:40:00,
2013-06-02 18:41:00,59.3,53.5,30.01,NNE,30,0.0,1.0,81,0.00,,OVC044,0.01,VWS V14.01,2013-06-02 23:41:00,
2013-06-02 18:46:00,59.2,53.4,30.01,NNE,16,0.0,1.0,81,0.00,,OVC044,0.01,VWS V14.01,2013-06-02 23:46:00,
2013-06-02 18:50:00,59.2,53.4,30.01,NNE,16,0.0,1.0,81,0.00,,CLR,0.01,VWS V14.01,2013-06-02 23:50:00,
2013-06-02 18:51:00,59.2,53.4,30.01,NNE,16,0.0,1.0,81,0.00,,OVC044,0.01,VWS V14.01,2013-06-02 23:51:00,
2013-06-02 18:57:00,59.1,53.3,30.01,NNE,16,0.0,1.0,81,0.00,,OVC044,0.01,VWS V14.01,2013-06-02 23:57:00,
2013-06-02 19:00:00,59.1,53.3,30.01,NE,52,0.0,1.0,81,0.00,,CLR,0.01,VWS V14.01,2013-06-03 00:00:00,
2013-06-02 19:02:00,59.1,53.3,30.01,NE,41,0.0,1.0,81,0.00,,OVC044,0.01,VWS V14.01,2013-06-03 00:02:00,
2013-06-02 19:07:00,59.0,52.8,30.01,East,81,0.0,1.0,80,0.00,,OVC044,0.01,VWS V14.01,2013-06-03 00:07:00,
2013-06-02 19:10:00,59.0,52.8,30.01,NE,50,0.0,1.0,80,0.00,,CLR,0.01,VWS V14.01,2013-06-03 00:10:00,
2013-06-02 19:12:00,59.0,53.2,30.01,NE,50,0.0,0.0,81,0.00,,OVC044,0.01,VWS V14.01,2013-06-03 00:12:00,
2013-06-02 19:17:00,59.0,53.5,30.02,NE,50,0.0,1.0,82,0.00,,OVC044,0.01,VWS V14.01,2013-06-03 00:17:00,
2013-06-02 19:20:00,58.9,53.4,30.02,ENE,68,3.0,3.0,82,0.00,,CLR,0.01,VWS V14.01,2013-06-03 00:20:00,
2013-06-02 19:22:00,58.8,53.3,30.02,East,101,0.0,6.0,82,0.00,,OVC044,0.01,VWS V14.01,2013-06-03 00:22:00,
2013-06-02 19:27:00,58.8,53.3,30.02,East,101,0.0,6.0,82,0.00,,OVC044,0.01,VWS V14.01,2013-06-03 00:27:00,
2013-06-02 19:30:00,58.7,53.2,30.02,ESE,102,0.0,6.0,82,0.00,,CLR,0.01,VWS V14.01,2013-06-03 00:30:00,
2013-06-02 19:32:00,58.7,53.6,30.02,East,101,0.0,0.0,83,0.00,,OVC044,0.01,VWS V14.01,2013-06-03 00:32:00,
2013-06-02 19:37:00,58.6,53.1,30.02,ESE,120,0.0,1.0,82,0.00,,OVC044,0.01,VWS V14.01,2013-06-03 00:37:00,
2013-06-02 19:40:00,58.5,52.7,30.02,ESE,120,0.0,1.0,81,0.00,,CLR,0.01,VWS V14.01,2013-06-03 00:40:00,
2013-06-02 19:42:00,58.4,52.9,30.02,ESE,120,0.0,0.0,82,0.00,,OVC042,0.01,VWS V14.01,2013-06-03 00:42:00,
2013-06-02 19:47:00,58.4,52.9,30.02,East,89,0.0,0.0,82,0.00,,OVC042,0.01,VWS V14.01,2013-06-03 00:47:00,
2013-06-02 19:50:00,58.3,52.8,30.02,East,89,0.0,0.0,82,0.00,,CLR,0.01,VWS V14.01,2013-06-03 00:50:00,
2013-06-02 19:52:00,58.2,52.7,30.02,East,89,0.0,0.0,82,0.00,,OVC042,0.01,VWS V14.01,2013-06-03 00:52:00,
2013-06-02 19:57:00,58.2,52.7,30.02,East,89,0.0,1.0,82,0.00,,OVC042,0.01,VWS V14.01,2013-06-03 00:57:00,
2013-06-02 20:00:00,58.2,53.1,30.02,East,89,0.0,1.0,83,0.00,,CLR,0.01,VWS V14.01,2013-06-03 01:00:00,
2013-06-02 20:02:00,58.2,53.7,30.02,East,89,0.0,1.0,85,0.00,,BKN042,0.01,VWS V14.01,2013-06-03 01:02:00,
2013-06-02 20:08:00,58.1,53.6,30.02,East,89,0.0,1.0,85,0.00,,BKN042,0.01,VWS V14.01,2013-06-03 01:08:00,
2013-06-02 20:10:00,58.0,53.5,30.02,East,89,0.0,1.0,85,0.00,,CLR,0.01,VWS V14.01,2013-06-03 01:10:00,
2013-06-02 20:13:00,57.9,53.4,30.02,East,89,0.0,0.0,85,0.00,,BKN042,0.01,VWS V14.01,2013-06-03 01:13:00,
2013-06-02 20:18:00,57.8,53.3,30.02,East,89,0.0,0.0,85,0.00,,BKN042,0.01,VWS V14.01,2013-06-03 01:18:00,
2013-06-02 20:20:00,57.7,53.2,30.02,East,89,0.0,0.0,85,0.00,,CLR,0.01,VWS V14.01,2013-06-03 01:20:00,
2013-06-02 20:23:00,57.7,53.5,30.02,East,89,0.0,1.0,86,0.00,,BKN042,0.01,VWS V14.01,2013-06-03 01:23:00,
2013-06-02 20:28:00,57.5,53.3,30.02,East,89,0.0,1.0,86,0.00,,BKN042,0.01,VWS V14.01,2013-06-03 01:28:00,
2013-06-02 20:30:00,57.6,53.5,30.02,East,89,0.0,1.0,86,0.00,,CLR,0.01,VWS V14.01,2013-06-03 01:30:00,
2013-06-02 20:33:00,57.4,53.2,30.02,East,89,0.0,0.0,86,0.00,,BKN042,0.01,VWS V14.01,2013-06-03 01:33:00,
2013-06-02 20:38:00,57.4,53.2,30.03,East,89,0.0,0.0,86,0.00,,BKN042,0.01,VWS V14.01,2013-06-03 01:38:00,
2013-06-02 20:40:00,57.4,53.2,30.03,East,89,0.0,0.0,86,0.00,,CLR,0.01,VWS V14.01,2013-06-03 01:40:00,
2013-06-02 20:43:00,57.3,53.2,30.03,East,89,0.0,0.0,86,0.00,,OVC042,0.01,VWS V14.01,2013-06-03 01:43:00,
2013-06-02 20:48:00,57.2,53.4,30.03,East,89,0.0,0.0,87,0.00,,OVC042,0.01,VWS V14.01,2013-06-03 01:48:00,
2013-06-02 20:50:00,57.2,53.4,30.03,East,89,0.0,0.0,87,0.00,,CLR,0.01,VWS V14.01,2013-06-03 01:50:00,
2013-06-02 20:53:00,57.1,53.3,30.03,East,89,0.0,0.0,87,0.00,,OVC042,0.01,VWS V14.01,2013-06-03 01:53:00,
2013-06-02 20:58:00,57.0,53.5,30.03,East,89,0.0,0.0,88,0.00,,OVC042,0.01,VWS V14.01,2013-06-03 01:58:00,
2013-06-02 21:00:00,57.1,53.6,30.03,East,89,0.0,0.0,88,0.00,,CLR,0.01,VWS V14.01,2013-06-03 02:00:00,
2013-06-02 21:03:00,57.0,53.2,30.03,East,89,0.0,0.0,87,0.00,,OVC042,0.01,VWS V14.01,2013-06-03 02:03:00,
2013-06-02 21:08:00,56.8,53.0,30.03,East,89,0.0,0.0,87,0.00,,OVC042,0.01,VWS V14.01,2013-06-03 02:08:00,
2013-06-02 21:10:00,56.8,53.0,30.03,East,89,0.0,0.0,87,0.00,,CLR,0.01,VWS V14.01,2013-06-03 02:10:00,
2013-06-02 21:14:00,56.8,52.7,30.03,East,89,0.0,0.0,86,0.00,,OVC042,0.01,VWS V14.01,2013-06-03 02:14:00,
2013-06-02 21:19:00,56.8,52.7,30.03,East,89,0.0,0.0,86,0.00,,OVC042,0.01,VWS V14.01,2013-06-03 02:19:00,
2013-06-02 21:20:00,56.8,52.7,30.03,East,89,0.0,0.0,86,0.00,,CLR,0.01,VWS V14.01,2013-06-03 02:20:00,
2013-06-02 21:24:00,56.7,52.6,30.04,East,89,0.0,0.0,86,0.00,,OVC042,0.01,VWS V14.01,2013-06-03 02:24:00,
2013-06-02 21:29:00,56.7,52.6,30.04,East,89,0.0,0.0,86,0.00,,OVC042,0.01,VWS V14.01,2013-06-03 02:29:00,
2013-06-02 21:30:00,56.7,52.6,30.04,East,89,0.0,0.0,86,0.00,,CLR,0.01,VWS V14.01,2013-06-03 02:30:00,
2013-06-02 21:34:00,56.7,52.6,30.05,East,98,0.0,0.0,86,0.00,,OVC042,0.01,VWS V14.01,2013-06-03 02:34:00,
2013-06-02 21:39:00,56.6,52.5,30.04,ENE,62,0.0,0.0,86,0.00,,OVC042,0.01,VWS V14.01,2013-06-03 02:39:00,
2013-06-02 21:40:00,56.6,52.5,30.05,ESE,103,0.0,0.0,86,0.00,,CLR,0.01,VWS V14.01,2013-06-03 02:40:00,
2013-06-02 21:45:00,56.5,52.4,30.05,ENE,62,0.0,0.0,86,0.00,,OVC044,0.01,VWS V14.01,2013-06-03 02:45:00,
2013-06-02 21:50:00,56.4,52.3,30.05,East,96,0.0,0.0,86,0.00,,OVC044,0.01,VWS V14.01,2013-06-03 02:50:00,
2013-06-02 21:55:00,56.3,52.2,30.05,East,86,2.0,3.0,86,0.00,,OVC044,0.01,VWS V14.01,2013-06-03 02:55:00,
2013-06-02 22:00:00,56.3,52.5,30.05,East,98,1.0,3.0,87,0.00,,OVC044,0.01,VWS V14.01,2013-06-03 03:00:00,
2013-06-02 22:05:00,56.3,52.2,30.05,ENE,77,0.0,3.0,86,0.00,,OVC044,0.01,VWS V14.01,2013-06-03 03:05:00,
2013-06-02 22:10:00,56.2,52.1,30.05,ENE,62,0.0,1.0,86,0.00,,OVC044,0.01,VWS V14.01,2013-06-03 03:10:00,
2013-06-02 22:15:00,56.1,52.0,30.05,East,94,0.0,1.0,86,0.00,,OVC044,0.01,VWS V14.01,2013-06-03 03:15:00,
2013-06-02 22:20:00,56.1,52.0,30.05,ESE,108,0.0,1.0,86,0.00,,CLR,0.01,VWS V14.01,2013-06-03 03:20:00,
2013-06-02 22:21:00,56.0,52.2,30.05,ESE,108,0.0,0.0,87,0.00,,OVC044,0.01,VWS V14.01,2013-06-03 03:21:00,
2013-06-02 22:26:00,55.8,51.7,30.05,East,96,0.0,3.0,86,0.00,,OVC044,0.01,VWS V14.01,2013-06-03 03:26:00,
2013-06-02 22:30:00,55.8,51.4,30.06,East,93,0.0,3.0,85,0.00,,CLR,0.01,VWS V14.01,2013-06-03 03:30:00,
2013-06-02 22:31:00,55.8,51.4,30.06,East,91,3.0,5.0,85,0.00,,OVC044,0.01,VWS V14.01,2013-06-03 03:31:00,
2013-06-02 22:37:00,55.8,51.0,30.06,ENE,58,0.0,5.0,84,0.00,,OVC044,0.01,VWS V14.01,2013-06-03 03:37:00,
2013-06-02 22:40:00,55.8,51.0,30.06,ENE,77,0.0,5.0,84,0.00,,CLR,0.01,VWS V14.01,2013-06-03 03:40:00,
2013-06-02 22:42:00,55.8,51.0,30.06,East,80,0.0,2.0,84,0.00,,OVC044,0.01,VWS V14.01,2013-06-03 03:42:00,
2013-06-02 22:47:00,55.7,51.0,30.05,East,79,0.0,2.0,84,0.00,,OVC044,0.01,VWS V14.01,2013-06-03 03:47:00,
2013-06-02 22:50:00,55.7,51.0,30.06,East,79,0.0,2.0,84,0.00,,CLR,0.01,VWS V14.01,2013-06-03 03:50:00,
2013-06-02 22:52:00,55.6,50.8,30.06,East,79,0.0,0.0,84,0.00,,OVC044,0.01,VWS V14.01,2013-06-03 03:52:00,
2013-06-02 22:57:00,55.5,50.8,30.06,East,96,0.0,3.0,84,0.00,,OVC044,0.01,VWS V14.01,2013-06-03 03:57:00,
2013-06-02 23:00:00,55.5,50.8,30.06,East,91,0.0,3.0,84,0.00,,CLR,0.01,VWS V14.01,2013-06-03 04:00:00,
2013-06-02 23:01:00,55.5,50.8,30.06,East,89,2.0,3.0,84,0.00,,OVC042,0.01,VWS V14.01,2013-06-03 04:01:00,
2013-06-02 23:02:00,55.5,50.8,30.06,East,87,0.0,3.0,84,0.00,,OVC042,0.01,VWS V14.01,2013-06-03 04:02:00,
2013-06-02 23:03:00,55.5,50.8,30.06,East,87,0.0,3.0,84,0.00,,OVC042,0.01,VWS V14.01,2013-06-03 04:03:00,
2013-06-02 23:04:00,55.4,50.7,30.05,East,98,1.0,3.0,84,0.00,,OVC042,0.01,VWS V14.01,2013-06-03 04:04:00,
2013-06-02 23:09:00,55.3,50.6,30.05,East,84,1.0,2.0,84,0.00,,OVC042,0.01,VWS V14.01,2013-06-03 04:09:00,
2013-06-02 23:10:00,55.3,50.6,30.05,East,89,2.0,4.0,84,0.00,,CLR,0.01,VWS V14.01,2013-06-03 04:10:00,
2013-06-02 23:14:00,55.1,50.4,30.06,East,98,2.0,2.0,84,0.00,,OVC042,0.01,VWS V14.01,2013-06-03 04:14:00,
2013-06-02 23:19:00,55.0,50.3,30.06,East,91,0.0,0.0,84,0.00,,OVC042,0.01,VWS V14.01,2013-06-03 04:19:00,
2013-06-02 23:20:00,55.0,50.3,30.06,East,91,0.0,2.0,84,0.00,,CLR,0.01,VWS V14.01,2013-06-03 04:20:00,
2013-06-02 23:24:00,54.8,50.1,30.06,ESE,115,0.0,1.0,84,0.00,,OVC042,0.01,VWS V14.01,2013-06-03 04:24:00,
2013-06-02 23:30:00,54.7,50.0,30.06,ENE,76,0.0,0.0,84,0.00,,OVC042,0.01,VWS V14.01,2013-06-03 04:30:00,
2013-06-02 23:35:00,54.7,50.0,30.06,East,98,0.0,1.0,84,0.00,,OVC042,0.01,VWS V14.01,2013-06-03 04:35:00,
2013-06-02 23:40:00,54.6,50.2,30.07,East,89,0.0,1.0,85,0.00,,OVC042,0.01,VWS V14.01,2013-06-03 04:40:00,
2013-06-02 23:45:00,54.6,50.2,30.06,ESE,117,1.0,3.0,85,0.00,,OVC042,0.01,VWS V14.01,2013-06-03 04:45:00,
2013-06-02 23:50:00,54.5,50.4,30.07,East,87,0.0,2.0,86,0.00,,OVC042,0.01,VWS V14.01,2013-06-03 04:50:00,
2013-06-02 23:55:00,54.3,50.2,30.07,East,85,0.0,2.0,86,0.00,,OVC042,0.01,VWS V14.01,2013-06-03 04:55:00,